DELTA 1 DEB, 21677

Orbit data source: Space-Track

DELTA 1 DEB, 21677 is space debris in SSO originally from a launch on Thu, 12 Jun 1975 UTC launched from the Air Force Western Test Range (AFWTR). Debris objects in space refer to the collection of defunct objects orbiting the Earth. Examples of debris include non-operational satellites, rocket bodies, and fragments generated from explosions, collisions, or faulty payload assembly.

Loading next visibility...
Identifier
21677, 1975-052JD
Orbit
SSO
Country
Flag of USUS
Related business
Manufacturer
Unknown
Mission
Spacecraft
Bus & Motor
Unknown
Mass
Unknown
Launch date (UTC)
1975-06-12 (51 years ago)
Launch vehicle
Unknown
Launch site
Air Force Western Test Range (AFWTR)
Object type
Payload
Rocket body
Debris
Shape & HBR
Unknown shape, 0.1 m
Radar Cross Section
Medium (>0.1 m² and <1 m²)

Expand to show TLE details & history
Last TLE update: 1 week ago

TLE from 1 week ago
0 DELTA 1 DEB
1 21677U 75052JD  26161.91459437  .00000094  00000-0  40464-3 0  9994
2 21677  99.9186 293.9112 0478610 195.0510 296.6469 12.71939807627218
Epoch: 2026-06-10T21:57Z
TLE epoch observation values (Epoch: 2026-06-10T21:57:00.953Z)
Latitude
52.29326°
Longitude
-101.60315°
Altitude
1,230.604 km
Speed
7.315 km/s
True Right ascension
08h 27m 40s
True Declination
52° 08' 13"
Sunlit
Object was in daylight at epoch
Visualization orbit readout
Latitude
Unknown
Longitude
Unknown
Altitude
Unknown
Speed
Unknown
Apparent Right ascension
Unknown
Apparent Declination
Unknown
Sunlit
N/A
Visualization observer readout
Local Sidereal Time
18:51:22
Azimuth
Unknown
Elevation
Unknown
Doppler factor
Unknown
Orbital elements
Apogee altitude
1,742.36 km
Perigee altitude
1,000.554 km
Semi-major axis
7,749.594 km
Eccentricity
0.04786
Inclination
99.9186°
RAAN
293.9112°
Arg. of periapsis
195.051°
True anomaly
291.61645°
Mean anomaly
296.6469°
Eccentric anomaly
294.14457°
Mean motion
3.18145 °/min
Orbital period
113.16 mins
BSTAR
0.00040464
Loading maneuver chart data...
Computing Atmospheric mass density...
Loading historical data...
Loading historical data...
Loading historical data...
Loading historical data...
Loading historical data...
Loading historical data...
Loading historical data...

Documentation

Showing up to 5 results
|